FENGYUN 1C DEB, 30533

Orbit data source: Space-Track

FENGYUN 1C DEB, 30533 is space debris in SSO originally from a launch on Mon, 10 May 1999 UTC launched from the Taiyaun Space Center, China (TSC). Fengyun 1C debris stems from the Chinese weather satellite Fengyun-1C, which was intentionally destroyed by a Chinese anti-satellite missile in 2007. This event dramatically increased the amount of space debris, with thousands of trackable fragments posing hazards to satellites and human spaceflight. The Fengyun 1C debris cloud has become a focal point in discussions about space sustainability and the need for international regulations to prevent the creation of new debris.

Loading next visibility...
Identifier
30533, 1999-025AJX
Orbit
SSO
Country
Flag of CNCN / PRC
Related business
Manufacturer
Unknown
Mission
Spacecraft
Bus & Motor
Unknown
Mass
Unknown
Launch date (UTC)
1999-05-10 (27 years ago)
Launch vehicle
Unknown
Launch site
Taiyaun Space Center, China (TSC)
Object type
Payload
Rocket body
Debris
Shape & HBR
Unknown shape, 0.1 m
Radar Cross Section
Small (<0.1 m²)

Expand to show TLE details & history
Last TLE update: 13 hours ago

TLE from 13 hours ago
0 FENGYUN 1C DEB
1 30533U 99025AJX 26106.36391060  .00006618  00000-0  14074-2 0  9991
2 30533  98.8390 247.3805 0078188 130.1879 285.2690 14.57480767996345
Epoch: 2026-04-16T08:44Z
TLE epoch observation values (Epoch: 2026-04-16T08:44:01.875Z)
Latitude
53.74707°
Longitude
-100.31601°
Altitude
695.943 km
Speed
7.521 km/s
True Right ascension
15h 40m 49s
True Declination
53° 34' 53"
Sunlit
Object was in daylight at epoch
Visualization orbit readout
Latitude
Unknown
Longitude
Unknown
Altitude
Unknown
Speed
Unknown
Apparent Right ascension
Unknown
Apparent Declination
Unknown
Sunlit
N/A
Visualization observer readout
Local Sidereal Time
04:11:48
Azimuth
Unknown
Elevation
Unknown
Doppler factor
Unknown
Orbital elements
Apogee altitude
753.765 km
Perigee altitude
643.105 km
Semi-major axis
7,076.572 km
Eccentricity
0.00782
Inclination
98.839°
RAAN
247.3805°
Arg. of periapsis
130.1879°
True anomaly
284.40246°
Mean anomaly
285.269°
Eccentric anomaly
284.83595°
Mean motion
3.64593 °/min
Orbital period
98.74 mins
BSTAR
0.0014074
Loading maneuver chart data...
Computing Atmospheric mass density...
Loading historical data...
Loading historical data...
Loading historical data...
Loading historical data...
Loading historical data...
Loading historical data...
Loading historical data...

Documentation

Showing up to 5 results
|